Weather History for Lyndonville, VT

Change the Weather History Date:

Sunday, February 26, 2012

  Actual Average (K1V4) Record (K1V4)
Temperature  
Mean Temperature 16 °F 23 °F  
Max Temperature 22 °F 34 °F 60 °F (1957)
Min Temperature 9 °F 11 °F -23 °F (1928)
Degree Days  
Heating Degree Days 50 42  
Month to date heating degree days 1191  
Since 1 July heating degree days 5640  
Moisture  
Dew Point 1 °F    
Average Humidity 54    
Maximum Humidity 75    
Minimum Humidity 29    
Precipitation  
Precipitation 0.00 in 0.08 in 0.92 in (1918)
Month to date precipitation 2.02  
Year to date precipitation 4.53  
Sea Level Pressure  
Sea Level Pressure 30.21 in    
Wind  
Wind Speed 9 mph (SW)    
Max Wind Speed 23 mph    
Max Gust Speed 31 mph    
Visibility 9 miles    
Events Snow    
T = Trace of Precipitation, MM = Missing Value Source: NWS Daily Summary

Daily Weather History Graph

Daily Weather History Graph

Search for Another Location

Airport:

Trip Planner

Search our weather history database for the weather conditions in past years. The results will help you decide how hot, cold, wet, or windy it might be!

Date:

Astronomy

Feb. 26, 2012 Rise Set
Actual Time 6:31 AM EST 5:31 PM EST
Civil Twilight 6:02 AM EST 6:00 PM EST
Nautical Twilight 5:28 AM EST 6:34 PM EST
Astronomical Twilight 4:54 AM EST 7:08 PM EST
Moon 8:11 AM EST (2/26) 10:41 PM EST (2/26)
Length of Visible Light 11h 58m
Length of Day
10h 59m
Waxing Crescent, 20% of the Moon is Illuminated
Feb 26
Waxing Crescent
Feb 29
First Quarter
Mar 8
Full
Mar 14
Last Quarter
Mar 22
New

Hourly Weather History & Observations

Time (EST) Temp. Windchill Dew Point Humidity Pressure Visibility Wind Dir Wind Speed Gust Speed Precip Events Conditions
12:15 AM 18.1 °F 7.1 °F 10.2 °F 71% 29.79 in 7.0 mi SW 9.2 mph - N/A Snow Light Snow
12:35 AM 18.0 °F 11.1 °F 9.3 °F 69% 29.81 in 10.0 mi SW 4.6 mph - N/A Snow Light Snow
12:55 AM 17.6 °F 8.2 °F 9.3 °F 70% 29.82 in 7.0 mi SW 6.9 mph - N/A Snow Light Snow
1:35 AM 16.5 °F 1.8 °F 9.5 °F 74% 29.85 in 3.0 mi SW 15.0 mph 20.7 mph N/A Snow Light Snow
1:55 AM 15.8 °F -2.3 °F 8.4 °F 73% 29.86 in 4.0 mi SW 23.0 mph 31.1 mph N/A Snow Light Snow
2:15 AM 15.4 °F -0.1 °F 7.9 °F 72% 29.88 in 5.0 mi SW 16.1 mph 28.8 mph N/A   Haze
2:35 AM 15.3 °F -1.3 °F 7.5 °F 71% 29.89 in 4.0 mi SW 18.4 mph 27.6 mph N/A Snow Light Snow
2:55 AM 14.7 °F -0.5 °F 7.3 °F 73% 29.92 in 4.0 mi SW 15.0 mph 26.5 mph N/A Snow Light Snow
3:15 AM 14.5 °F 2.7 °F 7.2 °F 73% 29.94 in 5.0 mi SW 9.2 mph 18.4 mph N/A Snow Light Snow
4:35 AM 13.3 °F 4.2 °F 5.5 °F 71% 30.01 in 7.0 mi SW 5.8 mph - N/A Snow Light Snow
4:55 AM 12.7 °F 2.4 °F 5.0 °F 71% 30.03 in 5.0 mi SW 6.9 mph - N/A Snow Light Snow
5:15 AM 12.6 °F -1.4 °F 4.6 °F 71% 30.04 in 7.0 mi SW 11.5 mph 17.3 mph N/A   Overcast
5:35 AM 12.7 °F -0.4 °F 4.3 °F 69% 30.06 in 5.0 mi SW 10.4 mph 19.6 mph N/A   Haze
5:55 AM 12.6 °F 2.2 °F 4.8 °F 71% 30.08 in 7.0 mi SW 6.9 mph - N/A   Overcast
6:15 AM 12.6 °F - 4.8 °F 71% 30.09 in 5.0 mi Calm Calm - N/A   Haze
6:55 AM 12.0 °F - 4.8 °F 73% 30.12 in 2.5 mi Calm Calm - N/A Snow Light Snow
7:15 AM 11.1 °F - 4.5 °F 75% 30.13 in 1.8 mi Calm Calm - N/A Snow Light Snow
7:35 AM 11.8 °F 0.3 °F 4.3 °F 72% 30.15 in 3.0 mi SW 8.1 mph 16.1 mph N/A Snow Light Snow
7:55 AM 12.0 °F -1.3 °F 3.2 °F 68% 30.16 in 7.0 mi SW 10.4 mph - N/A   Overcast
8:35 AM 12.4 °F 3.1 °F 2.7 °F 65% 30.18 in 10.0 mi SW 5.8 mph - N/A   Mostly Cloudy
8:55 AM 13.1 °F -0.7 °F 2.8 °F 64% 30.19 in 10.0 mi SW 11.5 mph - N/A   Scattered Clouds
9:15 AM 14.0 °F 0.5 °F 2.7 °F 61% 30.19 in 10.0 mi SW 11.5 mph 20.7 mph N/A   Mostly Cloudy
9:55 AM 14.7 °F 2.1 °F 1.9 °F 57% 30.20 in 10.0 mi SW 10.4 mph 20.7 mph N/A   Clear
10:15 AM 16.0 °F 8.8 °F 2.5 °F 55% 30.20 in 10.0 mi SW 4.6 mph - N/A   Clear
10:35 AM 17.1 °F 5.8 °F 1.9 °F 52% 30.21 in 10.0 mi SW 9.2 mph 18.4 mph N/A   Clear
10:55 AM 18.1 °F 7.1 °F 2.3 °F 50% 30.22 in 10.0 mi SW 9.2 mph - N/A   Clear
11:15 AM 18.1 °F 6.3 °F 2.3 °F 50% 30.22 in 10.0 mi SW 10.4 mph 17.3 mph N/A   Clear
11:35 AM 19.2 °F 6.4 °F 1.4 °F 46% 30.22 in 10.0 mi SW 12.7 mph 18.4 mph N/A   Clear
11:55 AM 19.9 °F 8.6 °F 1.0 °F 44% 30.23 in 10.0 mi SW 10.4 mph 19.6 mph N/A   Clear
12:15 PM 20.5 °F 10.0 °F 0.7 °F 42% 30.23 in 10.0 mi SW 9.2 mph - N/A   Clear
12:35 PM 21.2 °F 7.3 °F -0.6 °F 39% 30.24 in 10.0 mi SW 16.1 mph 20.7 mph N/A   Clear
12:55 PM 21.2 °F 10.9 °F -0.0 °F 40% 30.24 in 10.0 mi SW 9.2 mph 18.4 mph N/A   Clear
1:15 PM 21.4 °F 10.4 °F -2.2 °F 36% 30.24 in 10.0 mi SW 10.4 mph 19.6 mph N/A   Clear
1:35 PM 22.1 °F 10.6 °F -3.8 °F 32% 30.24 in 10.0 mi SW 11.5 mph 18.4 mph N/A   Clear
1:55 PM 22.1 °F 8.9 °F -5.1 °F 30% 30.25 in 10.0 mi SW 15.0 mph 19.6 mph N/A   Clear
2:15 PM 22.3 °F 10.2 °F -5.1 °F 30% 30.27 in 10.0 mi SW 12.7 mph 18.4 mph N/A   Clear
2:35 PM 22.5 °F 9.9 °F -5.3 °F 30% 30.27 in 10.0 mi SW 13.8 mph 18.4 mph N/A   Clear
2:55 PM 22.6 °F 10.7 °F -5.8 °F 29% 30.27 in 10.0 mi SW 12.7 mph 19.6 mph N/A   Clear
3:15 PM 22.5 °F 11.7 °F -6.0 °F 29% 30.28 in 10.0 mi SW 10.4 mph 16.1 mph N/A   Clear
3:35 PM 22.1 °F 10.0 °F -5.3 °F 30% 30.30 in 10.0 mi SW 12.7 mph 18.4 mph N/A   Clear
3:55 PM 21.7 °F 10.8 °F -3.5 °F 33% 30.30 in 10.0 mi SW 10.4 mph 18.4 mph N/A   Clear
4:15 PM 21.6 °F 12.1 °F -1.8 °F 36% 30.31 in 10.0 mi SW 8.1 mph 20.7 mph N/A   Clear
4:35 PM 21.0 °F 9.9 °F -1.1 °F 38% 30.32 in 10.0 mi SW 10.4 mph - N/A   Clear
4:55 PM 20.8 °F 8.4 °F -3.5 °F 34% 30.32 in 10.0 mi SW 12.7 mph 19.6 mph N/A   Clear
5:15 PM 19.9 °F 9.3 °F -3.8 °F 35% 30.32 in 10.0 mi SW 9.2 mph 16.1 mph N/A   Clear
5:35 PM 19.2 °F 11.3 °F -3.5 °F 37% 30.32 in 10.0 mi SW 5.8 mph - N/A   Clear
5:55 PM 18.5 °F 13.3 °F -2.7 °F 39% 30.33 in 10.0 mi SW 3.5 mph - N/A   Clear
6:15 PM 18.5 °F 13.3 °F -2.4 °F 40% 30.35 in 10.0 mi SW 3.5 mph - N/A   Clear
6:35 PM 18.7 °F - -2.0 °F 40% 30.35 in 10.0 mi Calm Calm - N/A   Clear
6:55 PM 18.5 °F 13.3 °F -1.3 °F 42% 30.35 in 10.0 mi SW 3.5 mph - N/A   Scattered Clouds
7:15 PM 18.0 °F 11.1 °F -0.6 °F 44% 30.35 in 10.0 mi SW 4.6 mph - N/A   Clear
7:35 PM 16.5 °F - 0.3 °F 49% 30.35 in 10.0 mi Calm Calm - N/A   Clear
7:55 PM 15.3 °F - 0.5 °F 52% 30.36 in 10.0 mi Calm Calm - N/A   Clear
8:15 PM 15.4 °F - 0.9 °F 53% 30.36 in 10.0 mi Calm Calm - N/A   Clear
8:35 PM 16.5 °F - -0.2 °F 48% 30.37 in 10.0 mi Calm Calm - N/A   Clear
8:55 PM 16.5 °F - 0.5 °F 49% 30.37 in 10.0 mi Calm Calm - N/A   Clear
9:15 PM 16.0 °F - 0.5 °F 51% 30.38 in 10.0 mi Calm Calm - N/A   Clear
9:35 PM 14.9 °F - 0.5 °F 53% 30.39 in 10.0 mi Calm Calm - N/A   Clear
9:55 PM 13.8 °F - 0.9 °F 56% 30.39 in 10.0 mi Calm Calm - N/A   Clear
10:15 PM 10.6 °F - 0.9 °F 65% 30.37 in 10.0 mi Calm Calm - N/A   Clear
10:35 PM 10.9 °F - 1.9 °F 67% 30.38 in 10.0 mi Calm Calm - N/A   Clear
10:55 PM 11.3 °F - 1.9 °F 66% 30.38 in 10.0 mi Calm Calm - N/A   Clear
11:15 PM 11.8 °F - 1.2 °F 62% 30.37 in 10.0 mi Calm Calm - N/A   Clear
11:35 PM 9.1 °F - 1.8 °F 72% 30.38 in 10.0 mi Calm Calm - N/A   Clear
11:55 PM 9.5 °F - 1.2 °F 69% 30.38 in 10.0 mi Calm Calm - N/A   Clear